Regional Weather Roundup
Issued by NWS Charleston, WV

Home | Current Version | Previous Version | Text Only | Print | Product List | Glossary Off
Versions: 1 2 3 4 5 6 7 8 9 10 11 12 13 14 15 16 17 18 19 20 21 22 23 24 25 26 27 28

000
ASUS41 KRLX 282110
RWRRLX
West Virginia Regional Weather Roundup
National Weather Service Charleston WV
500 PM EDT THU JUL 28 2016

Note: "fair" indicates few or no clouds below 12,000 feet with no
significant weather and/or obstructions to visibility.

WVZ003-282200-
Northern Panhandle of West Virginia

CITY           SKY/WX    TMP DP  RH WIND       PRES   REMARKS
WHEELING         N/A     72  67  84 S5        29.90S
$$

WVZ009-282200-
Northwest West Virginia

CITY           SKY/WX    TMP DP  RH WIND       PRES   REMARKS
PARKERSBURG    PTSUNNY   74  69  85 CALM      29.91S
$$

WVZ006-282200-
Western West Virginia

CITY           SKY/WX    TMP DP  RH WIND       PRES   REMARKS
HUNTINGTON     CLOUDY    75  70  84 CALM      29.89F
$$

WVZ015-282200-
West Central West Virginia

CITY           SKY/WX    TMP DP  RH WIND       PRES   REMARKS
CHARLESTON     LGT RAIN  75  72  90 CALM      29.88S VSB 1
$$

WVZ022-031-282200-
North Central West Virginia

CITY           SKY/WX    TMP DP  RH WIND       PRES   REMARKS
CLARKSBURG     HVY RAIN  68  67  96 E7        29.93S FOG
MORGANTOWN     LGT RAIN  70  68  93 SE5       29.94S
$$

WVZ025-035-042-045-282200-
Southern West Virginia

CITY           SKY/WX    TMP DP  RH WIND       PRES   REMARKS
BECKLEY        LGT RAIN  74  71  91 S10       29.96F FOG
LOGAN          PTSUNNY   72  70  94 CALM      29.93R
BLUEFIELD        N/A     78  66  66 W13       29.98F
LEWISBURG        N/A     81  68  64 W7        29.94F
$$

WVZ047-282200-
Northern Mountains of West Virginia

CITY           SKY/WX    TMP DP  RH WIND       PRES   REMARKS
ELKINS         CLOUDY    75  66  73 N10       29.94R
$$

WVZ052-282200-
Eastern Panhandle of West Virginia

CITY           SKY/WX    TMP DP  RH WIND       PRES   REMARKS
MARTINSBURG    LGT RAIN  78  69  73 CALM      29.86S
PETERSBURG     HVY RAIN  74  72  93 CALM      29.91S
$$




USA.gov is the U.S. government's official web portal to all federal, state and local government web resources and services.